Location: Pasadena-CA
(34.1440°N, 118.1100°W)
Time: 12:47:41
(UTC-07:00)

Oscar 19 - Pass Details

Date: 03 July 2022
Orbit: 773 x 790 km, 98.8° (Epoch: 17 August)

Event Time Altitude Azimuth Distance (km) Brightness Sun altitude
Rises 04:05:21 0° 17° (NNE) 3,254 15.0 -17.4°
Reaches altitude 10° 04:07:42 10° 21° (NNE) 2,323 14.1 -17.1°
Maximum altitude 04:12:46 62° 101° (ESE) 869 11.0 -16.3°
Enters shadow 04:17:19 13° 181° (S) 2,119 12.5 -15.6°
